Weather History for KHQZ - April, 2013

Change the Weather History Date:

Monday, April 22, 2013

  Actual Average (KDFW) Record (KDFW)
Temperature  
Mean Temperature 62 °F 67 °F  
Max Temperature 76 °F 78 °F 94 °F (1963)
Min Temperature 48 °F 57 °F 39 °F (1927)
Degree Days  
Heating Degree Days 3 2  
Month to date heating degree days 74  
Since 1 July heating degree days 2267  
Cooling Degree Days 0 4  
Month to date cooling degree days 62  
Year to date cooling degree days 101  
Growing Degree Days 12 (Base 50)    
Moisture  
Dew Point 52 °F    
Average Humidity 65    
Maximum Humidity 86    
Minimum Humidity 50    
Precipitation  
Precipitation 0.00 in 0.11 in 2.03 in (1962)
Month to date precipitation 2.05  
Year to date precipitation 10.33  
Snow  
Snow 0.00 in 0.00 in 0.00 in ()
Month to date snowfall 0.0  
Since 1 July snowfall 1.2  
Snow Depth -    
Sea Level Pressure  
Sea Level Pressure 30.01 in    
Wind  
Wind Speed 8 mph (SE)    
Max Wind Speed 20 mph    
Max Gust Speed 26 mph    
Visibility 10 miles    
Events      
T = Trace of Precipitation, MM = Missing Value Source: NWS Daily Summary

Daily Weather History Graph

Daily Weather History Graph

Search for Another Location

Airport or City:

Trip Planner

Search our weather history database for the weather conditions in past years. The results will help you decide how hot, cold, wet, or windy it might be!

Date:

Astronomy

Apr. 22, 2013 Rise Set
Actual Time 6:48 AM CDT 8:01 PM CDT
Civil Twilight 6:22 AM CDT 8:27 PM CDT
Nautical Twilight 5:51 AM CDT 8:57 PM CDT
Astronomical Twilight 5:20 AM CDT 9:29 PM CDT
Moon 5:00 PM CDT 4:32 AM CDT
Length of Visible Light 14h 04m
Length of Day
13h 13m
Waxing Gibbous, 88% of the Moon is Illuminated
Apr 22
Waxing Gibbous
Apr 25
Full
May 2
Last Quarter
May 9
New
May 17
First Quarter

Hourly Weather History & Observations

Time (CDT) Temp. Dew Point Humidity Pressure Visibility Wind Dir Wind Speed Gust Speed Precip Events Conditions
12:15 AM 55.8 °F 45.9 °F 69% 30.13 in 10.0 mi East 4.6 mph - N/A   Clear
12:35 AM 55.4 °F 45.9 °F 70% 30.12 in 10.0 mi East 4.6 mph - N/A   Clear
12:55 AM 55.4 °F 45.7 °F 70% 30.12 in 10.0 mi East 4.6 mph - N/A   Clear
1:15 AM 56.1 °F 45.1 °F 67% 30.11 in 10.0 mi East 6.9 mph - N/A   Clear
1:35 AM 55.8 °F 45.1 °F 67% 30.11 in 10.0 mi ESE 6.9 mph - N/A   Clear
1:55 AM 55.8 °F 44.8 °F 67% 30.11 in 10.0 mi SE 5.8 mph - N/A   Clear
2:15 AM 54.9 °F 44.8 °F 69% 30.10 in 10.0 mi SE 5.8 mph - N/A   Clear
2:35 AM 54.1 °F 44.8 °F 71% 30.10 in 10.0 mi SE 5.8 mph - N/A   Clear
2:55 AM 53.8 °F 44.6 °F 71% 30.09 in 10.0 mi ESE 3.5 mph - N/A   Scattered Clouds
3:15 AM 52.9 °F 44.6 °F 73% 30.09 in 10.0 mi SE 3.5 mph - N/A   Scattered Clouds
3:35 AM 53.2 °F 44.8 °F 73% 30.08 in 10.0 mi ESE 3.5 mph - N/A   Mostly Cloudy
3:55 AM 54.1 °F 45.7 °F 73% 30.08 in 10.0 mi SE 4.6 mph - N/A   Overcast
4:15 AM 54.7 °F 45.5 °F 71% 30.08 in 10.0 mi SE 6.9 mph - N/A   Overcast
4:55 AM 54.5 °F 46.0 °F 73% 30.07 in 10.0 mi SE 5.8 mph - N/A   Overcast
5:15 AM 52.9 °F 45.5 °F 76% 30.07 in 10.0 mi SSE 4.6 mph - N/A   Mostly Cloudy
5:35 AM 50.7 °F 44.8 °F 80% 30.08 in 10.0 mi South 4.6 mph - N/A   Clear
5:55 AM 50.9 °F 45.1 °F 81% 30.08 in 10.0 mi SSE 5.8 mph - N/A   Clear
6:15 AM 50.0 °F 45.0 °F 83% 30.08 in 10.0 mi SSE 4.6 mph - N/A   Clear
6:35 AM 49.6 °F 44.6 °F 83% 30.09 in 10.0 mi South 4.6 mph - N/A   Clear
6:55 AM 48.9 °F 44.1 °F 83% 30.09 in 10.0 mi South 4.6 mph - N/A   Clear
7:15 AM 49.1 °F 44.8 °F 85% 30.09 in 10.0 mi SSE 3.5 mph - N/A   Clear
7:35 AM 50.2 °F 46.0 °F 86% 30.10 in 10.0 mi SE 3.5 mph - N/A   Clear
7:55 AM 52.7 °F 46.6 °F 80% 30.10 in 10.0 mi SE 4.6 mph - N/A   Clear
8:15 AM 55.0 °F 47.5 °F 76% 30.10 in 10.0 mi SSE 5.8 mph - N/A   Clear
8:35 AM 56.5 °F 48.6 °F 75% 30.10 in 10.0 mi SSE 5.8 mph - N/A   Clear
8:55 AM 58.6 °F 49.6 °F 72% 30.10 in 10.0 mi South 5.8 mph - N/A   Clear
9:15 AM 60.4 °F 51.1 °F 71% 30.10 in 10.0 mi South 6.9 mph - N/A   Clear
9:35 AM 62.6 °F 52.0 °F 68% 30.11 in 10.0 mi SSE 8.1 mph - N/A   Clear
9:55 AM 64.8 °F 52.2 °F 64% 30.11 in 10.0 mi SSE 16.1 mph - N/A   Clear
10:15 AM 65.3 °F 52.7 °F 64% 30.10 in 10.0 mi SSE 17.3 mph 23.0 mph N/A   Clear
10:35 AM 66.4 °F 53.1 °F 62% 30.10 in 10.0 mi SSE 12.7 mph 19.6 mph N/A   Clear
10:55 AM 66.9 °F 53.8 °F 63% 30.09 in 10.0 mi South 12.7 mph 21.9 mph N/A   Clear
11:15 AM 68.2 °F 53.8 °F 60% 30.09 in 10.0 mi South 16.1 mph 23.0 mph N/A   Clear
11:35 AM 69.1 °F 53.4 °F 57% 30.08 in 10.0 mi SSE 12.7 mph 17.3 mph N/A   Clear
11:55 AM 70.0 °F 53.4 °F 56% 30.07 in 10.0 mi SE 16.1 mph 21.9 mph N/A   Clear
12:15 PM 70.7 °F 53.6 °F 55% 30.07 in 10.0 mi South 15.0 mph 19.6 mph N/A   Clear
12:35 PM 71.2 °F 54.3 °F 55% 30.05 in 10.0 mi SSE 13.8 mph 20.7 mph N/A   Clear
12:55 PM 72.0 °F 55.0 °F 55% 30.04 in 10.0 mi SSE 18.4 mph 23.0 mph N/A   Clear
1:15 PM 73.2 °F 56.3 °F 55% 30.03 in 10.0 mi SSE 15.0 mph 26.5 mph N/A   Clear
1:35 PM 71.8 °F 56.5 °F 58% 30.02 in 10.0 mi South 11.5 mph 21.9 mph N/A   Scattered Clouds
1:55 PM 73.0 °F 57.2 °F 57% 30.01 in 10.0 mi SE 16.1 mph 24.2 mph N/A   Mostly Cloudy
2:15 PM 73.8 °F 56.5 °F 55% 30.00 in 10.0 mi South 15.0 mph 23.0 mph N/A   Scattered Clouds
2:35 PM 73.8 °F 56.5 °F 55% 29.99 in 10.0 mi SSE 17.3 mph 20.7 mph N/A   Scattered Clouds
2:55 PM 74.5 °F 56.7 °F 54% 29.98 in 10.0 mi SSE 16.1 mph 23.0 mph N/A   Scattered Clouds
3:15 PM 75.4 °F 56.7 °F 52% 29.97 in 10.0 mi SSE 19.6 mph - N/A   Clear
3:35 PM 75.6 °F 57.0 °F 52% 29.96 in 10.0 mi South 12.7 mph 19.6 mph N/A   Scattered Clouds
3:55 PM 75.6 °F 56.3 °F 51% 29.94 in 10.0 mi SSE 17.3 mph 23.0 mph N/A   Scattered Clouds
4:15 PM 76.1 °F 56.8 °F 51% 29.93 in 10.0 mi SSE 15.0 mph 20.7 mph N/A   Scattered Clouds
4:35 PM 75.9 °F 56.5 °F 51% 29.92 in 10.0 mi SSE 15.0 mph 24.2 mph N/A   Clear
4:55 PM 76.5 °F 56.5 °F 50% 29.91 in 10.0 mi SE 19.6 mph 24.2 mph N/A   Clear
5:15 PM 76.6 °F 56.8 °F 50% 29.90 in 10.0 mi SSE 18.4 mph 25.3 mph N/A   Clear
5:35 PM 76.1 °F 56.3 °F 50% 29.89 in 10.0 mi SSE 17.3 mph 25.3 mph N/A   Clear
5:55 PM 76.1 °F 56.3 °F 50% 29.89 in 10.0 mi SSE 17.3 mph 20.7 mph N/A   Clear
6:15 PM 75.9 °F 56.8 °F 51% 29.89 in 10.0 mi SE 11.5 mph - N/A   Clear
6:35 PM 75.6 °F 56.5 °F 51% 29.88 in 10.0 mi SSE 15.0 mph 21.9 mph N/A   Clear
6:55 PM 75.2 °F 56.8 °F 53% 29.88 in 10.0 mi SSE 15.0 mph - N/A   Clear
7:15 PM 74.3 °F 56.8 °F 54% 29.87 in 10.0 mi SE 11.5 mph - N/A   Clear
7:35 PM 73.2 °F 56.5 °F 56% 29.87 in 10.0 mi SE 11.5 mph - N/A   Clear
7:55 PM 72.0 °F 56.5 °F 58% 29.87 in 10.0 mi SE 8.1 mph - N/A   Clear
8:15 PM 70.7 °F 56.7 °F 61% 29.88 in 10.0 mi SE 9.2 mph - N/A   Clear
8:35 PM 69.8 °F 56.3 °F 62% 29.88 in 10.0 mi SE 11.5 mph - N/A   Clear
8:55 PM 69.3 °F 56.3 °F 63% 29.89 in 10.0 mi SE 9.2 mph - N/A   Clear
9:15 PM 68.5 °F 56.3 °F 65% 29.89 in 10.0 mi SE 11.5 mph - N/A   Clear
9:35 PM 68.2 °F 56.1 °F 65% 29.89 in 10.0 mi SE 10.4 mph - N/A   Clear
9:55 PM 67.6 °F 55.9 °F 66% 29.89 in 10.0 mi SE 11.5 mph - N/A   Clear
10:15 PM 67.1 °F 55.9 °F 67% 29.90 in 10.0 mi SE 10.4 mph - N/A   Clear
10:35 PM 66.4 °F 56.1 °F 69% 29.90 in 10.0 mi SSE 11.5 mph - N/A   Clear
10:55 PM 66.2 °F 55.6 °F 69% 29.89 in 10.0 mi SSE 11.5 mph - N/A   Clear
11:15 PM 66.2 °F 55.6 °F 69% 29.90 in 10.0 mi SSE 9.2 mph - N/A   Clear
11:35 PM 66.2 °F 55.6 °F 69% 29.89 in 10.0 mi SSE 11.5 mph - N/A   Clear
11:55 PM 66.2 °F 55.4 °F 68% 29.88 in 10.0 mi SSE 11.5 mph - N/A   Clear